Regional Weather Roundup
Issued by NWS

Home | Current Version | Previous Version | Text Only | Print | Product List | Glossary Off
Versions: 1 2 3 4 5 6 7 8 9 10 11 12 13 14 15 16 17 18 19 20 21 22 23 24 25 26 27 28 29 30 31 32 33 34 35 36 37 38 39 40 41 42 43 44 45 46 47 48 49 50

000
ASUS45 KCYS 031810
RWRWY

WYOMING REGIONAL WEATHER ROUNDUP
NATIONAL WEATHER SERVICE CHEYENNE WY
1100 AM MST TUE MAR 03 2015

NOTE:  "FAIR" INDICATES FEW OR NO CLOUDS BELOW 12,000 FEET
WITH NO SIGNIFICANT WEATHER AND/OR OBSTRUCTIONS TO VISIBILITY.

WYZ001-031900-
YELLOWSTONE NATIONAL PARK

CITY           SKY/WX    TMP DP  RH WIND       PRES   REMARKS
LK YELLOWSTONE   N/A     11  -4  51 VRB3      29.77R
6HR MIN TEMP:   2; 6HR MAX TEMP:  11; 6HR PCP:  0.02;

W YELLOWSTONE  NOT AVBL

$$
WYZ002>013-054>058-071-098>099-031900-
NORTHERN WYOMING

CITY           SKY/WX    TMP DP  RH WIND       PRES   REMARKS
JACKSON          N/A     18  10  73 N16       29.76S WCI   3
CODY           CLOUDY     7   0  72 N17       29.98F WCI -12
GREYBULL       LGT SNOW  14   6  70 NW22G28   30.03S WCI  -4
6HR MIN TEMP:  12; 6HR MAX TEMP:  17; 6HR PCP: TRACE;

WORLAND        LGT SNOW  14   7  73 NW18      30.01S WCI  -3
6HR MIN TEMP:  12; 6HR MAX TEMP:  16; 6HR PCP: TRACE;

SHERIDAN       CLOUDY    10   3  73 NW17      30.07S HAZE    WCI  -8
6HR MIN TEMP:   9; 6HR MAX TEMP:  13; 6HR PCP:  0.03;

BUFFALO        CLOUDY     8   3  80 N29G35    29.95F HAZE    WCI -15
6HR MIN TEMP:   7; 6HR MAX TEMP:  10; 6HR PCP: TRACE;

GILLETTE       CLOUDY    10   3  73 N15       29.99R HAZE    WCI  -7
6HR MIN TEMP:   6; 6HR MAX TEMP:  11; 6HR PCP: TRACE;

HULETT         CLOUDY    12   3  67 NW16G22   29.99F WCI  -4
NEWCASTLE      FAIR      16   3  57 NW18G28   29.97F WCI  -1

$$
WYZ014>020-022>026-101>103-031900-
CENTRAL WYOMING

CITY           SKY/WX    TMP DP  RH WIND       PRES   REMARKS
BIG PINEY      PTSUNNY   22  16  78 S9        29.72S WCI  12
6HR MIN TEMP:  13; 6HR MAX TEMP:  22; 6HR PCP: TRACE;

PINEDALE       LGT SNOW  21  14  73 S8        29.72S WCI  12
DUBOIS         CLOUDY    12   3  67 E7        29.78F HAZE    WCI   2
LANDER         LGT SNOW  11   5  77 NE15      29.90S WCI  -5
6HR MIN TEMP:  10; 6HR MAX TEMP:  14; 6HR PCP:  0.09;

RIVERTON       LGT SNOW  11   5  77 E15       29.92R WCI  -5
6HR MIN TEMP:  10; 6HR MAX TEMP:  13; 6HR PCP:  0.10;

CASPER         CLOUDY     9   2  73 E6        29.93F WCI  -1
6HR MIN TEMP:   6; 6HR MAX TEMP:  11; 6HR PCP:  0.01;

DOUGLAS        CLOUDY    11   4  73 NW10      29.96F WCI  -3
6HR MIN TEMP:   9; 6HR MAX TEMP:  13; 6HR PCP: TRACE;


$$
WYZ021-027>030-104>119-031900-
SOUTHERN WYOMING

CITY           SKY/WX    TMP DP  RH WIND       PRES   REMARKS
EVANSTON       LGT SNOW  24  19  81 NW14      29.75R WCI  12
6HR MIN TEMP:  23; 6HR MAX TEMP:  25; 6HR PCP:  0.10;

KEMMERER       FLURRIES  27  19  74 W21G28    29.71R WCI  13
FORT BRIDGER   LGT SNOW  28  25  89 NW12      29.75R WCI  18
ROCK SPRINGS   SNOW      13  10  88 NE14      29.74S VSB 1/4 WCI  -2
6HR MIN TEMP:  13; 6HR MAX TEMP:  18; 6HR PCP:  0.02;

DIXON          CLOUDY    32  23  69 CALM      29.76S
RAWLINS        LGT SNOW  14   7  73 NE9       29.77F WCI   2
6HR MIN TEMP:   9; 6HR MAX TEMP:  15; 6HR PCP: TRACE;

SARATOGA       LGT SNOW  16  10  79 NW3       29.75S
LARAMIE        FAIR      19  11  70 VRB3      29.73S
6HR MIN TEMP:  13; 6HR MAX TEMP:  19; 6HR PCP: TRACE;

CHEYENNE       MIX PCPN  12   3  67 N14G21    29.86R WCI  -3
6HR MIN TEMP:  10; 6HR MAX TEMP:  20; 6HR PCP:  0.01;

TORRINGTON     LGT SNOW  16   6  65 N15       29.99R WCI   1
6HR MIN TEMP:  14; 6HR MAX TEMP:  17; 6HR PCP: TRACE;

PINE BLUFFS    FLURRIES  18  10  73 N16       29.93R WCI   3

$$



USA.gov is the U.S. government's official web portal to all federal, state and local government web resources and services.